Waarnemingen

Advertentie
Mijn weer
Maastricht, Nederland (6380): temperatuur & dauwpunt: 20.09.2017 01:00:00 - 26.09.2017 01:00:00 (CEST)Maastricht, Nederland (6380): temperatuur 5cm: 20.09.2017 01:00:00 - 26.09.2017 01:00:00 (CEST)Maastricht, Nederland (6380): windsnelheid & windstoten: 20.09.2017 01:00:00 - 26.09.2017 01:00:00 (CEST)Maastricht, Nederland (6380): windrichting: 20.09.2017 01:00:00 - 26.09.2017 01:00:00 (CEST)Maastricht, Nederland (6380): luchtdruk: 20.09.2017 01:00:00 - 26.09.2017 01:00:00 (CEST)Maastricht, Nederland (6380): zicht: 20.09.2017 01:00:00 - 26.09.2017 01:00:00 (CEST)Maastricht, Nederland (6380): neerslag: 20.09.2017 01:00:00 - 26.09.2017 01:00:00 (CEST)
Datum & Tijd tt [°C] td [°C] tt 5cm [°C] ff [km/u] ff [kn] fx [km/u] fx [kn] dd ppp [hPa] vv [km] rr [mm]
26.09.2017 01:00:00 12,9 11,6 12,0 5 3 11 6 ONO 1020,6 10 0,0
26.09.2017 00:00:00 13,1 11,5 11,5 9 5 22 12 ONO 1020,6 10 0,0
25.09.2017 23:00:00 11,5 10,4 9,6 5 3 11 6 ONO 1020,7 10 0,0
25.09.2017 22:00:00 12,2 10,6 10,1 8 4 11 6 ONO 1020,6 10 0,0
25.09.2017 21:00:00 13,9 11,3 11,5 11 6 18 10 ONO 1020,7 10 0,0
25.09.2017 20:00:00 14,8 11,4 12,9 15 8 25 14 ONO 1020,5 10 0,0
25.09.2017 19:00:00 16,5 11,5 14,5 11 6 22 12 NO 1020,0 10 0,0
25.09.2017 18:00:00 18,3 11,2 17,0 15 8 22 12 ONO 1019,8 10 0,0
25.09.2017 17:00:00 18,8 11,3 18,3 13 7 25 14 ONO 1019,6 10 0,0
25.09.2017 16:00:00 19,1 11,1 18,8 16 9 29 16 ONO 1019,7 10 0,0
25.09.2017 15:00:00 19,2 10,9 19,7 15 8 25 14 O 1019,8 10 0,0
25.09.2017 14:00:00 18,6 11,0 19,8 13 7 25 14 ONO 1020,1 10 0,0
25.09.2017 13:00:00 18,3 11,6 19,3 15 8 25 14 O 1020,2 10 0,0
25.09.2017 12:00:00 17,0 11,5 17,9 9 5 18 10 ONO 1020,7 10 0,0
25.09.2017 11:00:00 15,2 12,0 15,2 8 4 14 8 ONO 1020,9 10 0,0
25.09.2017 10:00:00 13,5 10,9 13,7 5 3 14 8 O 1020,8 10 0,0
25.09.2017 09:00:00 10,8 9,9 10,3 5 3 7 4 NO 1021,1 3,1 0,0
25.09.2017 08:00:00 8,7 8,7 6,6 4 2 7 4 - 1020,9 5 0,0
25.09.2017 07:00:00 9,1 8,9 7,4 8 4 14 8 OZO 1020,5 2,6 0,0
25.09.2017 06:00:00 9,0 8,9 7,1 5 3 11 6 ONO 1020,7 1,9 0,0
25.09.2017 05:00:00 8,8 8,7 6,7 2 1 11 6 - 1020,9 2,8 0,0
25.09.2017 04:00:00 9,6 9,1 8,0 4 2 11 6 - 1021,3 4,0 0,0
25.09.2017 03:00:00 10,7 9,8 8,5 11 6 14 8 O 1021,4 4,5 0,0
25.09.2017 02:00:00 10,2 9,4 8,2 5 3 11 6 ONO 1021,7 4,3 0,0
25.09.2017 01:00:00 11,2 10,2 8,8 5 3 11 6 O 1021,9 5 0,0
25.09.2017 00:00:00 11,9 10,8 9,4 9 5 14 8 O 1022,3 7 0,0
24.09.2017 23:00:00 12,4 10,9 10,1 9 5 11 6 ONO 1022,3 7 0,0
24.09.2017 22:00:00 13,1 11,0 10,3 8 4 18 10 ONO 1022,3 10 0,0
24.09.2017 21:00:00 14,2 10,9 11,3 11 6 14 8 ONO 1022,3 10 0,0
24.09.2017 20:00:00 14,9 11,1 12,3 13 7 22 12 O 1022,1 10 0,0
24.09.2017 19:00:00 16,7 12,1 14,8 15 8 22 12 ONO 1021,9 10 0,0
24.09.2017 18:00:00 18,3 11,7 16,8 16 9 25 14 ONO 1021,9 10 0,0
24.09.2017 17:00:00 19,0 11,4 18,3 18 10 25 14 ONO 1021,8 10 0,0
24.09.2017 16:00:00 19,2 12,2 19,1 15 8 22 12 NO 1022,0 10 0,0
24.09.2017 15:00:00 19,0 12,0 19,4 15 8 22 12 NO 1022,4 10 0,0
24.09.2017 14:00:00 18,7 13,1 19,5 15 8 22 12 ONO 1022,5 10 0,0
24.09.2017 13:00:00 17,6 13,1 18,1 11 6 22 12 NNO 1022,5 8 0,0
24.09.2017 12:00:00 16,4 13,5 16,7 9 5 18 10 NO 1023,0 4,9 0,0
24.09.2017 11:00:00 12,8 12,2 13,1 8 4 11 6 NNO 1023,2 3,5 0,0
24.09.2017 10:00:00 10,4 10,0 11,5 2 1 7 4 - 1023,1 3,4 0,0
24.09.2017 09:00:00 8,9 8,9 8,3 4 2 7 4 O 1022,7 0,1 0,0
24.09.2017 08:00:00 6,2 6,2 4,8 0 0 7 4 N 1022,7 1,6 0,0
24.09.2017 07:00:00 6,9 6,8 5,1 4 2 11 6 O 1022,2 1,6 0,0
24.09.2017 06:00:00 6,9 6,8 4,7 5 3 11 6 O 1022,0 1,9 0,0
24.09.2017 05:00:00 7,3 7,3 4,8 2 1 4 2 - 1022,3 2,2 0,0
24.09.2017 04:00:00 7,5 7,5 5,2 4 2 4 2 ONO 1022,3 3,8 0,0
24.09.2017 03:00:00 7,8 7,4 5,8 9 5 7 4 O 1022,2 4,5 0,0
24.09.2017 02:00:00 8,8 8,3 6,2 9 5 11 6 O 1022,4 4,8 0,0
24.09.2017 01:00:00 8,9 8,6 6,1 4 2 7 4 O 1022,8 4,1 0,0
24.09.2017 00:00:00 10,0 9,2 7,5 5 3 29 16 ONO 1022,9 4,5 0,0
23.09.2017 23:00:00 11,0 9,5 7,6 8 4 11 6 O 1022,8 7 0,0
23.09.2017 22:00:00 11,6 9,5 8,3 11 6 22 12 ONO 1023,1 10 0,0
23.09.2017 21:00:00 11,0 8,7 7,9 9 5 11 6 NO 1023,1 10 0,0
23.09.2017 20:00:00 12,1 8,6 9,4 8 4 11 6 NNO 1022,9 10 0,0
23.09.2017 19:00:00 14,3 9,3 13,0 8 4 11 6 NO 1022,7 10 0,0
23.09.2017 18:00:00 16,1 9,5 14,8 9 5 14 8 NO 1022,7 10 0,0
23.09.2017 17:00:00 16,9 8,9 16,7 5 3 18 10 NO 1022,8 10 0,0
23.09.2017 16:00:00 16,9 10,1 17,5 5 3 14 8 - 1023,3 10 0,0
23.09.2017 15:00:00 16,3 9,8 16,6 11 6 22 12 NO 1024,1 10 0,0
23.09.2017 14:00:00 15,2 11,0 17,1 4 2 18 10 - 1024,4 10 0,0
23.09.2017 13:00:00 12,7 10,2 13,6 9 5 14 8 O 1024,8 10 0,0
23.09.2017 12:00:00 12,1 10,9 13,2 11 6 14 8 NO 1025,1 7 0,0
23.09.2017 11:00:00 12,0 11,3 13,2 5 3 14 8 - 1025,2 4,9 0,0
23.09.2017 10:00:00 11,3 11,2 12,5 2 1 7 4 - 1024,9 2,0 0,0
23.09.2017 09:00:00 11,0 11,0 11,5 4 2 7 4 - 1024,6 0,2 0,0
23.09.2017 08:00:00 10,7 10,7 11,0 4 2 7 4 - 1024,6 0,3 0,0
23.09.2017 07:00:00 10,1 10,1 9,5 4 2 7 4 Z 1024,3 3,3 0,0
23.09.2017 06:00:00 9,1 9,1 8,3 4 2 4 2 ZZO 1024,1 1,9 0,0
23.09.2017 05:00:00 8,3 8,3 6,9 2 1 4 2 - 1024,2 0,3 0,0
23.09.2017 04:00:00 10,6 10,6 8,6 5 3 7 4 WNW 1024,1 3,6 0,0
23.09.2017 03:00:00 9,2 9,2 6,8 2 1 4 2 W 1023,8 2,3 0,0
23.09.2017 02:00:00 9,8 9,6 7,9 4 2 4 2 - 1023,7 0,8 0,0
23.09.2017 01:00:00 11,8 11,6 10,1 5 3 7 4 WNW 1023,6 8 0,0
23.09.2017 00:00:00 13,0 12,5 11,3 4 2 7 4 - 1023,4 8 0,0
22.09.2017 23:00:00 13,8 13,2 13,0 4 2 7 4 - 1023,3 6 0,0
22.09.2017 22:00:00 14,7 13,7 13,9 5 3 14 8 WZW 1023,0 8 0,0
22.09.2017 21:00:00 13,5 13,1 13,1 5 3 11 6 ZZW 1022,7 4,3 0,0
22.09.2017 20:00:00 14,2 13,7 13,9 9 5 14 8 ZZW 1022,2 6 0,1
22.09.2017 19:00:00 14,9 13,4 14,7 8 4 11 6 ZW 1021,7 5 0,3
22.09.2017 18:00:00 16,2 13,8 15,9 8 4 14 8 WZW 1021,4 10 0,0
22.09.2017 17:00:00 17,0 13,0 16,6 8 4 22 12 W 1021,2 10 0,0
22.09.2017 16:00:00 16,7 12,2 16,5 9 5 22 12 W 1021,1 10 0,0
22.09.2017 15:00:00 18,6 11,6 18,7 9 5 18 10 WZW 1020,7 10 0,0
22.09.2017 14:00:00 18,4 11,5 18,8 9 5 14 8 WZW 1020,7 10 0,0
22.09.2017 13:00:00 18,7 11,0 19,6 9 5 14 8 ZZW 1020,5 10 0,0
22.09.2017 12:00:00 17,3 11,7 18,1 8 4 18 10 ZZW 1020,6 10 0,0
22.09.2017 11:00:00 15,4 10,9 15,8 9 5 18 10 ZZW 1020,7 10 0,0
22.09.2017 10:00:00 12,6 9,3 11,7 11 6 14 8 ZZW 1020,6 10 0,0
22.09.2017 09:00:00 10,5 8,5 9,6 9 5 14 8 ZZW 1020,3 10 0,0
22.09.2017 08:00:00 8,1 7,2 6,6 9 5 11 6 ZZW 1020,0 10 0,0
22.09.2017 07:00:00 8,0 7,1 6,5 9 5 11 6 ZZW 1019,6 10 0,0
22.09.2017 06:00:00 8,0 6,9 5,5 5 3 7 4 Z 1019,4 10 0,0
22.09.2017 05:00:00 7,5 6,6 6,3 8 4 7 4 Z 1019,5 10 0,0
22.09.2017 04:00:00 8,6 7,3 5,9 8 4 7 4 Z 1019,4 10 0,0
22.09.2017 03:00:00 9,6 8,3 6,7 8 4 7 4 Z 1019,8 10 0,0
22.09.2017 02:00:00 10,4 8,3 7,2 5 3 11 6 Z 1019,9 10 0,0
22.09.2017 01:00:00 11,2 8,7 8,8 5 3 11 6 Z 1019,8 10 0,0
22.09.2017 00:00:00 11,9 8,9 8,6 8 4 11 6 Z 1019,8 10 0,0
21.09.2017 23:00:00 13,5 9,4 7,4 8 4 18 10 Z 1019,6 10 0,0
21.09.2017 22:00:00 12,1 9,4 8,4 5 3 7 4 Z 1019,5 10 0,0
21.09.2017 21:00:00 12,8 10,0 9,5 4 2 7 4 OZO 1019,5 10 0,0
21.09.2017 20:00:00 14,1 10,5 11,4 5 3 7 4 O 1019,3 10 0,0
21.09.2017 19:00:00 16,8 11,1 15,6 4 2 7 4 - 1018,9 10 0,0
21.09.2017 18:00:00 18,7 9,4 18,8 8 4 11 6 ZZW 1018,8 10 0,0
21.09.2017 17:00:00 19,1 8,6 20,2 5 3 14 8 ZZW 1018,9 10 0,0
21.09.2017 16:00:00 18,0 8,6 19,1 9 5 22 12 ZZW 1019,2 10 0,0
21.09.2017 15:00:00 17,9 9,0 18,9 8 4 18 10 Z 1019,6 10 0,0
21.09.2017 14:00:00 17,5 7,5 19,3 9 5 18 10 ZZW 1019,9 10 0,0
21.09.2017 13:00:00 17,5 9,0 19,4 13 7 18 10 ZZW 1020,5 10 0,0
21.09.2017 12:00:00 16,5 9,9 17,2 13 7 18 10 Z 1020,8 10 0,0
21.09.2017 11:00:00 14,7 9,3 15,4 13 7 18 10 ZZW 1021,2 10 0,0
21.09.2017 10:00:00 13,4 9,2 13,5 11 6 14 8 Z 1021,2 10 0,0
21.09.2017 09:00:00 11,1 7,8 10,5 13 7 14 8 Z 1020,8 10 0,0
21.09.2017 08:00:00 9,2 6,8 7,4 9 5 14 8 Z 1020,9 10 0,0
21.09.2017 07:00:00 8,3 6,4 6,4 8 4 11 6 Z 1020,8 10 0,0
21.09.2017 06:00:00 8,7 6,8 6,9 9 5 14 8 Z 1020,8 10 0,0
21.09.2017 05:00:00 8,3 7,3 6,8 9 5 11 6 Z 1021,0 10 0,0
21.09.2017 04:00:00 8,3 7,2 7,2 11 6 14 8 Z 1021,0 10 0,0
21.09.2017 03:00:00 9,6 8,1 8,1 11 6 14 8 Z 1021,0 10 0,0
21.09.2017 02:00:00 10,3 8,4 8,8 9 5 14 8 Z 1021,3 10 0,0
21.09.2017 01:00:00 10,4 8,6 8,9 11 6 14 8 Z 1021,3 10 0,0
21.09.2017 00:00:00 11,0 9,1 9,5 11 6 18 10 Z 1021,3 10 0,0
20.09.2017 23:00:00 11,2 9,1 9,8 15 8 25 14 ZZW 1021,3 10 0,0
20.09.2017 22:00:00 11,3 8,8 9,6 11 6 22 12 ZZW 1021,1 10 0,0
20.09.2017 21:00:00 12,3 9,4 10,3 11 6 11 6 ZW 1021,1 10 0,0
20.09.2017 20:00:00 13,6 9,5 11,5 9 5 11 6 ZZW 1020,9 10 0,0
20.09.2017 19:00:00 14,7 10,4 13,7 9 5 11 6 ZW 1020,5 10 0,0
20.09.2017 18:00:00 15,5 9,7 15,1 16 9 25 14 ZW 1020,4 10 0,0
20.09.2017 17:00:00 16,1 9,8 15,9 9 5 18 10 W 1020,6 10 0,0
20.09.2017 16:00:00 15,9 8,6 16,0 11 6 25 14 W 1020,8 10 0,0
20.09.2017 15:00:00 16,9 9,4 17,0 13 7 25 14 WZW 1020,9 10 0,0
20.09.2017 14:00:00 15,2 8,5 16,0 16 9 32 18 WZW 1021,3 10 0,0
20.09.2017 13:00:00 14,9 9,8 14,7 15 8 29 16 WZW 1021,6 10 0,0
20.09.2017 12:00:00 13,9 9,4 14,1 16 9 22 12 ZW 1021,9 10 0,0
20.09.2017 11:00:00 13,3 9,6 13,9 16 9 22 12 WZW 1021,8 10 0,0
20.09.2017 10:00:00 12,7 10,1 12,2 15 8 22 12 ZW 1021,7 8 0,0
20.09.2017 09:00:00 11,9 10,6 10,8 15 8 18 10 ZW 1021,6 7 0,0
20.09.2017 08:00:00 11,3 10,7 11,0 9 5 14 8 ZW 1021,5 5 0,0
20.09.2017 07:00:00 11,2 10,9 11,0 9 5 14 8 ZW 1021,4 3,3 0,0
20.09.2017 06:00:00 10,9 10,9 10,9 15 8 18 10 ZW 1021,2 1,5 0,0
20.09.2017 05:00:00 10,5 10,2 10,3 15 8 22 12 ZZW 1021,1 3,1 0,0
20.09.2017 04:00:00 10,3 9,8 10,0 11 6 18 10 ZZW 1021,2 4,2 0,0
20.09.2017 03:00:00 9,4 9,1 8,7 9 5 11 6 ZZW 1021,3 5 0,0
20.09.2017 02:00:00 9,3 8,9 8,6 9 5 11 6 ZW 1021,6 6 0,0
20.09.2017 01:00:00 9,1 8,8 8,2 8 4 7 4 ZW 1021,5 9 0,0

tt = temperatuur
td = dauwpunt
tt 5cm = temperatuur 5cm
ff = windsnelheid
fx = windstoten
dd = windrichting
ppp = luchtdruk
vv = zicht
rr = neerslag

Weerstations in de omgeving